IRIDIUM 33 DEB, 34833

Orbit data source: Space-Track

IRIDIUM 33 DEB, 34833 is space debris in LEO originally from a launch on Sun, 14 Sep 1997 UTC launched from the Tyuratam Missile And Space Complex (TTMTR). The debris from Iridium 33, an American commercial communications satellite, has been tracked extensively since its accidental collision with the defunct Russian satellite Cosmos 2251 in 2009. This event, occurring at high speed in low Earth orbit (LEO), generated thousands of pieces of space debris, significantly increasing the risk of further collisions. The Iridium 33 debris cloud has impacted space traffic management and orbital debris mitigation strategies, making it a subject of ongoing study in space situational awareness.

Loading next visibility...
Identifier
34833, 1997-051MH
Orbit
LEO
Country
Flag of USUS
Related business
Manufacturer
Unknown
Mission
Spacecraft
Bus & Motor
Unknown
Mass
Unknown
Launch date (UTC)
1997-09-14 (29 years ago)
Launch vehicle
Unknown
Launch site
Tyuratam Missile And Space Complex (TTMTR)
Object type
Payload
Rocket body
Debris
Shape & HBR
Unknown shape, 0.050 m
Radar Cross Section
Small (<0.1 m²)

Expand to show TLE details & history
Last TLE update: 2 days ago

TLE from 2 days ago
0 IRIDIUM 33 DEB
1 34833U 97051MH  26266.04546948  .00001331  00000-0  31100-3 0  9991
2 34833  86.3881 288.3113 0017750 215.3756 174.2298 14.53901482918448
Epoch: 2026-09-23T01:05Z
TLE epoch observation values (Epoch: 2026-09-23T01:05:28.563Z)
Latitude
29.60985°
Longitude
-87.91512°
Altitude
729.3 km
Speed
7.487 km/s
True Right ascension
19h 21m 25s
True Declination
29° 27' 42"
Sunlit
Object was in daylight at epoch
Visualization orbit readout
Latitude
Unknown
Longitude
Unknown
Altitude
Unknown
Speed
Unknown
Apparent Right ascension
Unknown
Apparent Declination
Unknown
Sunlit
N/A
Visualization observer readout
Local Sidereal Time
11:34:54
Azimuth
Unknown
Elevation
Unknown
Doppler factor
Unknown
Orbital elements
Apogee altitude
722.452 km
Perigee altitude
697.29 km
Semi-major axis
7,088.008 km
Eccentricity
0.00178
Inclination
86.3881°
RAAN
288.3113°
Arg. of periapsis
215.3756°
True anomaly
174.2502°
Mean anomaly
174.2298°
Eccentric anomaly
174.24001°
Mean motion
3.63711 °/min
Orbital period
98.98 mins
BSTAR
0.000311

Documentation

Showing up to 5 results
|